Data supplied by UK-AIR on 5/4/2008
All Data GMT hour ending 
Status: R =Ratified P=Provisional,P*=As supplied
,,Bottesford,,,,,,,,,,,,,,,,,,,,,,,
Date,time,"Ozone",status,unit
 
01-01-1992,01:00,22,R,ugm-3
01-01-1992,02:00,24,R,ugm-3
01-01-1992,03:00,36,R,ugm-3
01-01-1992,04:00,32,R,ugm-3
01-01-1992,05:00,38,R,ugm-3
01-01-1992,06:00,42,R,ugm-3
01-01-1992,07:00,44,R,ugm-3
01-01-1992,08:00,44,R,ugm-3
01-01-1992,09:00,46,R,ugm-3
01-01-1992,10:00,46,R,ugm-3
01-01-1992,11:00,40,R,ugm-3
01-01-1992,12:00,40,R,ugm-3
01-01-1992,13:00,40,R,ugm-3
01-01-1992,14:00,40,R,ugm-3
01-01-1992,15:00,38,R,ugm-3
01-01-1992,16:00,36,R,ugm-3
01-01-1992,17:00,32,R,ugm-3
01-01-1992,18:00,30,R,ugm-3
01-01-1992,19:00,34,R,ugm-3
01-01-1992,20:00,34,R,ugm-3
01-01-1992,21:00,40,R,ugm-3
01-01-1992,22:00,40,R,ugm-3
01-01-1992,23:00,44,R,ugm-3
01-01-1992,24:00,48,R,ugm-3
02-01-1992,01:00,50,R,ugm-3
02-01-1992,02:00,54,R,ugm-3
02-01-1992,03:00,52,R,ugm-3
02-01-1992,04:00,52,R,ugm-3
02-01-1992,05:00,50,R,ugm-3
02-01-1992,06:00,54,R,ugm-3
02-01-1992,07:00,56,R,ugm-3
02-01-1992,08:00,54,R,ugm-3
02-01-1992,09:00,46,R,ugm-3
02-01-1992,10:00,32,R,ugm-3
02-01-1992,11:00,46,R,ugm-3
02-01-1992,12:00,48,R,ugm-3
02-01-1992,13:00,42,R,ugm-3
02-01-1992,14:00,38,R,ugm-3
02-01-1992,15:00,42,R,ugm-3
02-01-1992,16:00,40,R,ugm-3
02-01-1992,17:00,36,R,ugm-3
02-01-1992,18:00,34,R,ugm-3
02-01-1992,19:00,34,R,ugm-3
02-01-1992,20:00,32,R,ugm-3
02-01-1992,21:00,36,R,ugm-3
02-01-1992,22:00,36,R,ugm-3
02-01-1992,23:00,38,R,ugm-3
02-01-1992,24:00,40,R,ugm-3
03-01-1992,01:00,42,R,ugm-3
03-01-1992,02:00,44,R,ugm-3
03-01-1992,03:00,46,R,ugm-3
03-01-1992,04:00,48,R,ugm-3
03-01-1992,05:00,48,R,ugm-3
03-01-1992,06:00,50,R,ugm-3
03-01-1992,07:00,48,R,ugm-3
03-01-1992,08:00,50,R,ugm-3
03-01-1992,09:00,46,R,ugm-3
03-01-1992,10:00,42,R,ugm-3
03-01-1992,11:00,40,R,ugm-3
03-01-1992,12:00,40,R,ugm-3
03-01-1992,13:00,38,R,ugm-3
03-01-1992,14:00,38,R,ugm-3
03-01-1992,15:00,38,R,ugm-3
03-01-1992,16:00,34,R,ugm-3
03-01-1992,17:00,32,R,ugm-3
03-01-1992,18:00,32,R,ugm-3
03-01-1992,19:00,34,R,ugm-3
03-01-1992,20:00,38,R,ugm-3
03-01-1992,21:00,40,R,ugm-3
03-01-1992,22:00,40,R,ugm-3
03-01-1992,23:00,44,R,ugm-3
03-01-1992,24:00,48,R,ugm-3
04-01-1992,01:00,56,R,ugm-3
04-01-1992,02:00,46,R,ugm-3
04-01-1992,03:00,34,R,ugm-3
04-01-1992,04:00,32,R,ugm-3
04-01-1992,05:00,28,R,ugm-3
04-01-1992,06:00,28,R,ugm-3
04-01-1992,07:00,30,R,ugm-3
04-01-1992,08:00,30,R,ugm-3
04-01-1992,09:00,30,R,ugm-3
04-01-1992,10:00,26,R,ugm-3
04-01-1992,11:00,24,R,ugm-3
04-01-1992,12:00,24,R,ugm-3
04-01-1992,13:00,24,R,ugm-3
04-01-1992,14:00,22,R,ugm-3
04-01-1992,15:00,24,R,ugm-3
04-01-1992,16:00,24,R,ugm-3
04-01-1992,17:00,18,R,ugm-3
04-01-1992,18:00,6,R,ugm-3
04-01-1992,19:00,4,R,ugm-3
04-01-1992,20:00,2,R,ugm-3
04-01-1992,21:00,2,R,ugm-3
04-01-1992,22:00,2,R,ugm-3
04-01-1992,23:00,0,R,ugm-3
04-01-1992,24:00,2,R,ugm-3
05-01-1992,01:00,10,R,ugm-3
05-01-1992,02:00,18,R,ugm-3
05-01-1992,03:00,14,R,ugm-3
05-01-1992,04:00,18,R,ugm-3
05-01-1992,05:00,14,R,ugm-3
05-01-1992,06:00,14,R,ugm-3
05-01-1992,07:00,12,R,ugm-3
05-01-1992,08:00,24,R,ugm-3
05-01-1992,09:00,14,R,ugm-3
05-01-1992,10:00,28,R,ugm-3
05-01-1992,11:00,40,R,ugm-3
05-01-1992,12:00,40,R,ugm-3
05-01-1992,13:00,38,R,ugm-3
05-01-1992,14:00,38,R,ugm-3
05-01-1992,15:00,38,R,ugm-3
05-01-1992,16:00,38,R,ugm-3
05-01-1992,17:00,40,R,ugm-3
05-01-1992,18:00,40,R,ugm-3
05-01-1992,19:00,42,R,ugm-3
05-01-1992,20:00,42,R,ugm-3
05-01-1992,21:00,40,R,ugm-3
05-01-1992,22:00,40,R,ugm-3
05-01-1992,23:00,40,R,ugm-3
05-01-1992,24:00,38,R,ugm-3
06-01-1992,01:00,44,R,ugm-3
06-01-1992,02:00,46,R,ugm-3
06-01-1992,03:00,46,R,ugm-3
06-01-1992,04:00,46,R,ugm-3
06-01-1992,05:00,48,R,ugm-3
06-01-1992,06:00,48,R,ugm-3
06-01-1992,07:00,46,R,ugm-3
06-01-1992,08:00,38,R,ugm-3
06-01-1992,09:00,28,R,ugm-3
06-01-1992,10:00,26,R,ugm-3
06-01-1992,11:00,28,R,ugm-3
06-01-1992,12:00,36,R,ugm-3
06-01-1992,13:00,42,R,ugm-3
06-01-1992,14:00,40,R,ugm-3
06-01-1992,15:00,34,R,ugm-3
06-01-1992,16:00,28,R,ugm-3
06-01-1992,17:00,18,R,ugm-3
06-01-1992,18:00,6,R,ugm-3
06-01-1992,19:00,10,R,ugm-3
06-01-1992,20:00,6,R,ugm-3
06-01-1992,21:00,16,R,ugm-3
06-01-1992,22:00,20,R,ugm-3
06-01-1992,23:00,28,R,ugm-3
06-01-1992,24:00,38,R,ugm-3
07-01-1992,01:00,38,R,ugm-3
07-01-1992,02:00,36,R,ugm-3
07-01-1992,03:00,38,R,ugm-3
07-01-1992,04:00,38,R,ugm-3
07-01-1992,05:00,40,R,ugm-3
07-01-1992,06:00,40,R,ugm-3
07-01-1992,07:00,40,R,ugm-3
07-01-1992,08:00,38,R,ugm-3
07-01-1992,09:00,36,R,ugm-3
07-01-1992,10:00,32,R,ugm-3
07-01-1992,11:00,26,R,ugm-3
07-01-1992,12:00,34,R,ugm-3
07-01-1992,13:00,32,R,ugm-3
07-01-1992,14:00,34,R,ugm-3
07-01-1992,15:00,36,R,ugm-3
07-01-1992,16:00,36,R,ugm-3
07-01-1992,17:00,38,R,ugm-3
07-01-1992,18:00,34,R,ugm-3
07-01-1992,19:00,30,R,ugm-3
07-01-1992,20:00,26,R,ugm-3
07-01-1992,21:00,18,R,ugm-3
07-01-1992,22:00,16,R,ugm-3
07-01-1992,23:00,20,R,ugm-3
07-01-1992,24:00,16,R,ugm-3
08-01-1992,01:00,26,R,ugm-3
08-01-1992,02:00,28,R,ugm-3
08-01-1992,03:00,26,R,ugm-3
08-01-1992,04:00,24,R,ugm-3
08-01-1992,05:00,26,R,ugm-3
08-01-1992,06:00,34,R,ugm-3
08-01-1992,07:00,40,R,ugm-3
08-01-1992,08:00,42,R,ugm-3
08-01-1992,09:00,38,R,ugm-3
08-01-1992,10:00,30,R,ugm-3
08-01-1992,11:00,34,R,ugm-3
08-01-1992,12:00,34,R,ugm-3
08-01-1992,13:00,36,R,ugm-3
08-01-1992,14:00,38,R,ugm-3
08-01-1992,15:00,32,R,ugm-3
08-01-1992,16:00,30,R,ugm-3
08-01-1992,17:00,16,R,ugm-3
08-01-1992,18:00,40,R,ugm-3
08-01-1992,19:00,26,R,ugm-3
08-01-1992,20:00,16,R,ugm-3
08-01-1992,21:00,16,R,ugm-3
08-01-1992,22:00,30,R,ugm-3
08-01-1992,23:00,22,R,ugm-3
08-01-1992,24:00,24,R,ugm-3
09-01-1992,01:00,18,R,ugm-3
09-01-1992,02:00,20,R,ugm-3
09-01-1992,03:00,44,R,ugm-3
09-01-1992,04:00,52,R,ugm-3
09-01-1992,05:00,54,R,ugm-3
09-01-1992,06:00,52,R,ugm-3
09-01-1992,07:00,54,R,ugm-3
09-01-1992,08:00,50,R,ugm-3
09-01-1992,09:00,50,R,ugm-3
09-01-1992,10:00,46,R,ugm-3
09-01-1992,11:00,50,R,ugm-3
09-01-1992,12:00,50,R,ugm-3
09-01-1992,13:00,54,R,ugm-3
09-01-1992,14:00,54,R,ugm-3
09-01-1992,15:00,44,R,ugm-3
09-01-1992,16:00,34,R,ugm-3
09-01-1992,17:00,32,R,ugm-3
09-01-1992,18:00,28,R,ugm-3
09-01-1992,19:00,30,R,ugm-3
09-01-1992,20:00,22,R,ugm-3
09-01-1992,21:00,20,R,ugm-3
09-01-1992,22:00,10,R,ugm-3
09-01-1992,23:00,16,R,ugm-3
09-01-1992,24:00,26,R,ugm-3
10-01-1992,01:00,24,R,ugm-3
10-01-1992,02:00,26,R,ugm-3
10-01-1992,03:00,22,R,ugm-3
10-01-1992,04:00,28,R,ugm-3
10-01-1992,05:00,22,R,ugm-3
10-01-1992,06:00,10,R,ugm-3
10-01-1992,07:00,8,R,ugm-3
10-01-1992,08:00,2,R,ugm-3
10-01-1992,09:00,0,R,ugm-3
10-01-1992,10:00,2,R,ugm-3
10-01-1992,11:00,4,R,ugm-3
10-01-1992,12:00,4,R,ugm-3
10-01-1992,13:00,2,R,ugm-3
10-01-1992,14:00,4,R,ugm-3
10-01-1992,15:00,2,R,ugm-3
10-01-1992,16:00,0,R,ugm-3
10-01-1992,17:00,0,R,ugm-3
10-01-1992,18:00,0,R,ugm-3
10-01-1992,19:00,0,R,ugm-3
10-01-1992,20:00,0,R,ugm-3
10-01-1992,21:00,0,R,ugm-3
10-01-1992,22:00,0,R,ugm-3
10-01-1992,23:00,0,R,ugm-3
10-01-1992,24:00,0,R,ugm-3
11-01-1992,01:00,0,R,ugm-3
11-01-1992,02:00,0,R,ugm-3
11-01-1992,03:00,0,R,ugm-3
11-01-1992,04:00,0,R,ugm-3
11-01-1992,05:00,0,R,ugm-3
11-01-1992,06:00,0,R,ugm-3
11-01-1992,07:00,0,R,ugm-3
11-01-1992,08:00,0,R,ugm-3
11-01-1992,09:00,0,R,ugm-3
11-01-1992,10:00,0,R,ugm-3
11-01-1992,11:00,0,R,ugm-3
11-01-1992,12:00,2,R,ugm-3
11-01-1992,13:00,2,R,ugm-3
11-01-1992,14:00,2,R,ugm-3
11-01-1992,15:00,2,R,ugm-3
11-01-1992,16:00,0,R,ugm-3
11-01-1992,17:00,0,R,ugm-3
11-01-1992,18:00,0,R,ugm-3
11-01-1992,19:00,0,R,ugm-3
11-01-1992,20:00,0,R,ugm-3
11-01-1992,21:00,0,R,ugm-3
11-01-1992,22:00,0,R,ugm-3
11-01-1992,23:00,0,R,ugm-3
11-01-1992,24:00,0,R,ugm-3
12-01-1992,01:00,0,R,ugm-3
12-01-1992,02:00,0,R,ugm-3
12-01-1992,03:00,0,R,ugm-3
12-01-1992,04:00,0,R,ugm-3
12-01-1992,05:00,0,R,ugm-3
12-01-1992,06:00,0,R,ugm-3
12-01-1992,07:00,0,R,ugm-3
12-01-1992,08:00,0,R,ugm-3
12-01-1992,09:00,0,R,ugm-3
12-01-1992,10:00,0,R,ugm-3
12-01-1992,11:00,0,R,ugm-3
12-01-1992,12:00,0,R,ugm-3
12-01-1992,13:00,0,R,ugm-3
12-01-1992,14:00,0,R,ugm-3
12-01-1992,15:00,0,R,ugm-3
12-01-1992,16:00,0,R,ugm-3
12-01-1992,17:00,0,R,ugm-3
12-01-1992,18:00,0,R,ugm-3
12-01-1992,19:00,0,R,ugm-3
12-01-1992,20:00,0,R,ugm-3
12-01-1992,21:00,0,R,ugm-3
12-01-1992,22:00,0,R,ugm-3
12-01-1992,23:00,0,R,ugm-3
12-01-1992,24:00,0,R,ugm-3
13-01-1992,01:00,0,R,ugm-3
13-01-1992,02:00,0,R,ugm-3
13-01-1992,03:00,0,R,ugm-3
13-01-1992,04:00,0,R,ugm-3
13-01-1992,05:00,0,R,ugm-3
13-01-1992,06:00,0,R,ugm-3
13-01-1992,07:00,0,R,ugm-3
13-01-1992,08:00,0,R,ugm-3
13-01-1992,09:00,0,R,ugm-3
13-01-1992,10:00,0,R,ugm-3
13-01-1992,11:00,0,R,ugm-3
13-01-1992,12:00,0,R,ugm-3
13-01-1992,13:00,2,R,ugm-3
13-01-1992,14:00,4,R,ugm-3
13-01-1992,15:00,4,R,ugm-3
13-01-1992,16:00,0,R,ugm-3
13-01-1992,17:00,0,R,ugm-3
13-01-1992,18:00,0,R,ugm-3
13-01-1992,19:00,0,R,ugm-3
13-01-1992,20:00,0,R,ugm-3
13-01-1992,21:00,0,R,ugm-3
13-01-1992,22:00,0,R,ugm-3
13-01-1992,23:00,0,R,ugm-3
13-01-1992,24:00,0,R,ugm-3
14-01-1992,01:00,0,R,ugm-3
14-01-1992,02:00,0,R,ugm-3
14-01-1992,03:00,0,R,ugm-3
14-01-1992,04:00,0,R,ugm-3
14-01-1992,05:00,0,R,ugm-3
14-01-1992,06:00,0,R,ugm-3
14-01-1992,07:00,0,R,ugm-3
14-01-1992,08:00,0,R,ugm-3
14-01-1992,09:00,0,R,ugm-3
14-01-1992,10:00,0,R,ugm-3
14-01-1992,11:00,0,R,ugm-3
14-01-1992,12:00,0,R,ugm-3
14-01-1992,13:00,0,R,ugm-3
14-01-1992,14:00,0,R,ugm-3
14-01-1992,15:00,0,R,ugm-3
14-01-1992,16:00,0,R,ugm-3
14-01-1992,17:00,0,R,ugm-3
14-01-1992,18:00,0,R,ugm-3
14-01-1992,19:00,0,R,ugm-3
14-01-1992,20:00,0,R,ugm-3
14-01-1992,21:00,0,R,ugm-3
14-01-1992,22:00,0,R,ugm-3
14-01-1992,23:00,0,R,ugm-3
14-01-1992,24:00,0,R,ugm-3
15-01-1992,01:00,0,R,ugm-3
15-01-1992,02:00,0,R,ugm-3
15-01-1992,03:00,0,R,ugm-3
15-01-1992,04:00,0,R,ugm-3
15-01-1992,05:00,0,R,ugm-3
15-01-1992,06:00,0,R,ugm-3
15-01-1992,07:00,0,R,ugm-3
15-01-1992,08:00,0,R,ugm-3
15-01-1992,09:00,0,R,ugm-3
15-01-1992,10:00,0,R,ugm-3
15-01-1992,11:00,0,R,ugm-3
15-01-1992,12:00,2,R,ugm-3
15-01-1992,13:00,2,R,ugm-3
15-01-1992,14:00,0,R,ugm-3
15-01-1992,15:00,0,R,ugm-3
15-01-1992,16:00,0,R,ugm-3
15-01-1992,17:00,0,R,ugm-3
15-01-1992,18:00,0,R,ugm-3
15-01-1992,19:00,0,R,ugm-3
15-01-1992,20:00,0,R,ugm-3
15-01-1992,21:00,0,R,ugm-3
15-01-1992,22:00,0,R,ugm-3
15-01-1992,23:00,0,R,ugm-3
15-01-1992,24:00,0,R,ugm-3
16-01-1992,01:00,0,R,ugm-3
16-01-1992,02:00,0,R,ugm-3
16-01-1992,03:00,0,R,ugm-3
16-01-1992,04:00,0,R,ugm-3
16-01-1992,05:00,0,R,ugm-3
16-01-1992,06:00,0,R,ugm-3
16-01-1992,07:00,0,R,ugm-3
16-01-1992,08:00,0,R,ugm-3
16-01-1992,09:00,0,R,ugm-3
16-01-1992,10:00,0,R,ugm-3
16-01-1992,11:00,2,R,ugm-3
16-01-1992,12:00,8,R,ugm-3
16-01-1992,13:00,10,R,ugm-3
16-01-1992,14:00,12,R,ugm-3
16-01-1992,15:00,6,R,ugm-3
16-01-1992,16:00,0,R,ugm-3
16-01-1992,17:00,0,R,ugm-3
16-01-1992,18:00,0,R,ugm-3
16-01-1992,19:00,0,R,ugm-3
16-01-1992,20:00,0,R,ugm-3
16-01-1992,21:00,0,R,ugm-3
16-01-1992,22:00,0,R,ugm-3
16-01-1992,23:00,0,R,ugm-3
16-01-1992,24:00,0,R,ugm-3
17-01-1992,01:00,0,R,ugm-3
17-01-1992,02:00,0,R,ugm-3
17-01-1992,03:00,0,R,ugm-3
17-01-1992,04:00,0,R,ugm-3
17-01-1992,05:00,0,R,ugm-3
17-01-1992,06:00,0,R,ugm-3
17-01-1992,07:00,0,R,ugm-3
17-01-1992,08:00,0,R,ugm-3
17-01-1992,09:00,0,R,ugm-3
17-01-1992,10:00,0,R,ugm-3
17-01-1992,11:00,0,R,ugm-3
17-01-1992,12:00,0,R,ugm-3
17-01-1992,13:00,0,R,ugm-3
17-01-1992,14:00,0,R,ugm-3
17-01-1992,15:00,0,R,ugm-3
17-01-1992,16:00,0,R,ugm-3
17-01-1992,17:00,0,R,ugm-3
17-01-1992,18:00,0,R,ugm-3
17-01-1992,19:00,0,R,ugm-3
17-01-1992,20:00,0,R,ugm-3
17-01-1992,21:00,0,R,ugm-3
17-01-1992,22:00,0,R,ugm-3
17-01-1992,23:00,0,R,ugm-3
17-01-1992,24:00,0,R,ugm-3
18-01-1992,01:00,0,R,ugm-3
18-01-1992,02:00,0,R,ugm-3
18-01-1992,03:00,0,R,ugm-3
18-01-1992,04:00,0,R,ugm-3
18-01-1992,05:00,0,R,ugm-3
18-01-1992,06:00,0,R,ugm-3
18-01-1992,07:00,0,R,ugm-3
18-01-1992,08:00,0,R,ugm-3
18-01-1992,09:00,0,R,ugm-3
18-01-1992,10:00,2,R,ugm-3
18-01-1992,11:00,4,R,ugm-3
18-01-1992,12:00,8,R,ugm-3
18-01-1992,13:00,10,R,ugm-3
18-01-1992,14:00,4,R,ugm-3
18-01-1992,15:00,4,R,ugm-3
18-01-1992,16:00,2,R,ugm-3
18-01-1992,17:00,0,R,ugm-3
18-01-1992,18:00,0,R,ugm-3
18-01-1992,19:00,0,R,ugm-3
18-01-1992,20:00,0,R,ugm-3
18-01-1992,21:00,0,R,ugm-3
18-01-1992,22:00,2,R,ugm-3
18-01-1992,23:00,8,R,ugm-3
18-01-1992,24:00,6,R,ugm-3
19-01-1992,01:00,12,R,ugm-3
19-01-1992,02:00,12,R,ugm-3
19-01-1992,03:00,10,R,ugm-3
19-01-1992,04:00,8,R,ugm-3
19-01-1992,05:00,6,R,ugm-3
19-01-1992,06:00,10,R,ugm-3
19-01-1992,07:00,14,R,ugm-3
19-01-1992,08:00,14,R,ugm-3
19-01-1992,09:00,16,R,ugm-3
19-01-1992,10:00,24,R,ugm-3
19-01-1992,11:00,20,R,ugm-3
19-01-1992,12:00,20,R,ugm-3
19-01-1992,13:00,14,R,ugm-3
19-01-1992,14:00,10,R,ugm-3
19-01-1992,15:00,6,R,ugm-3
19-01-1992,16:00,2,R,ugm-3
19-01-1992,17:00,2,R,ugm-3
19-01-1992,18:00,2,R,ugm-3
19-01-1992,19:00,4,R,ugm-3
19-01-1992,20:00,8,R,ugm-3
19-01-1992,21:00,6,R,ugm-3
19-01-1992,22:00,24,R,ugm-3
19-01-1992,23:00,44,R,ugm-3
19-01-1992,24:00,32,R,ugm-3
20-01-1992,01:00,34,R,ugm-3
20-01-1992,02:00,38,R,ugm-3
20-01-1992,03:00,38,R,ugm-3
20-01-1992,04:00,40,R,ugm-3
20-01-1992,05:00,36,R,ugm-3
20-01-1992,06:00,32,R,ugm-3
20-01-1992,07:00,32,R,ugm-3
20-01-1992,08:00,24,R,ugm-3
20-01-1992,09:00,26,R,ugm-3
20-01-1992,10:00,24,R,ugm-3
20-01-1992,11:00,36,R,ugm-3
20-01-1992,12:00,36,R,ugm-3
20-01-1992,13:00,42,R,ugm-3
20-01-1992,14:00,40,R,ugm-3
20-01-1992,15:00,38,R,ugm-3
20-01-1992,16:00,38,R,ugm-3
20-01-1992,17:00,38,R,ugm-3
20-01-1992,18:00,32,R,ugm-3
20-01-1992,19:00,26,R,ugm-3
20-01-1992,20:00,26,R,ugm-3
20-01-1992,21:00,38,R,ugm-3
20-01-1992,22:00,42,R,ugm-3
20-01-1992,23:00,44,R,ugm-3
20-01-1992,24:00,38,R,ugm-3
21-01-1992,01:00,32,R,ugm-3
21-01-1992,02:00,32,R,ugm-3
21-01-1992,03:00,26,R,ugm-3
21-01-1992,04:00,6,R,ugm-3
21-01-1992,05:00,4,R,ugm-3
21-01-1992,06:00,8,R,ugm-3
21-01-1992,07:00,12,R,ugm-3
21-01-1992,08:00,20,R,ugm-3
21-01-1992,09:00,16,R,ugm-3
21-01-1992,10:00,20,R,ugm-3
21-01-1992,11:00,16,R,ugm-3
21-01-1992,12:00,20,R,ugm-3
21-01-1992,13:00,18,R,ugm-3
21-01-1992,14:00,18,R,ugm-3
21-01-1992,15:00,18,R,ugm-3
21-01-1992,16:00,6,R,ugm-3
21-01-1992,17:00,0,R,ugm-3
21-01-1992,18:00,0,R,ugm-3
21-01-1992,19:00,0,R,ugm-3
21-01-1992,20:00,0,R,ugm-3
21-01-1992,21:00,0,R,ugm-3
21-01-1992,22:00,0,R,ugm-3
21-01-1992,23:00,0,R,ugm-3
21-01-1992,24:00,0,R,ugm-3
22-01-1992,01:00,0,R,ugm-3
22-01-1992,02:00,0,R,ugm-3
22-01-1992,03:00,0,R,ugm-3
22-01-1992,04:00,0,R,ugm-3
22-01-1992,05:00,0,R,ugm-3
22-01-1992,06:00,0,R,ugm-3
22-01-1992,07:00,0,R,ugm-3
22-01-1992,08:00,0,R,ugm-3
22-01-1992,09:00,0,R,ugm-3
22-01-1992,10:00,2,R,ugm-3
22-01-1992,11:00,2,R,ugm-3
22-01-1992,12:00,2,R,ugm-3
22-01-1992,13:00,2,R,ugm-3
22-01-1992,14:00,22,R,ugm-3
22-01-1992,15:00,24,R,ugm-3
22-01-1992,16:00,0,R,ugm-3
22-01-1992,17:00,0,R,ugm-3
22-01-1992,18:00,0,R,ugm-3
22-01-1992,19:00,0,R,ugm-3
22-01-1992,20:00,0,R,ugm-3
22-01-1992,21:00,0,R,ugm-3
22-01-1992,22:00,0,R,ugm-3
22-01-1992,23:00,0,R,ugm-3
22-01-1992,24:00,0,R,ugm-3
23-01-1992,01:00,0,R,ugm-3
23-01-1992,02:00,0,R,ugm-3
23-01-1992,03:00,0,R,ugm-3
23-01-1992,04:00,0,R,ugm-3
23-01-1992,05:00,0,R,ugm-3
23-01-1992,06:00,0,R,ugm-3
23-01-1992,07:00,0,R,ugm-3
23-01-1992,08:00,0,R,ugm-3
23-01-1992,09:00,0,R,ugm-3
23-01-1992,10:00,0,R,ugm-3
23-01-1992,11:00,4,R,ugm-3
23-01-1992,12:00,8,R,ugm-3
23-01-1992,13:00,8,R,ugm-3
23-01-1992,14:00,8,R,ugm-3
23-01-1992,15:00,6,R,ugm-3
23-01-1992,16:00,2,R,ugm-3
23-01-1992,17:00,0,R,ugm-3
23-01-1992,18:00,0,R,ugm-3
23-01-1992,19:00,0,R,ugm-3
23-01-1992,20:00,0,R,ugm-3
23-01-1992,21:00,0,R,ugm-3
23-01-1992,22:00,0,R,ugm-3
23-01-1992,23:00,0,R,ugm-3
23-01-1992,24:00,0,R,ugm-3
24-01-1992,01:00,0,R,ugm-3
24-01-1992,02:00,0,R,ugm-3
24-01-1992,03:00,0,R,ugm-3
24-01-1992,04:00,0,R,ugm-3
24-01-1992,05:00,0,R,ugm-3
24-01-1992,06:00,0,R,ugm-3
24-01-1992,07:00,0,R,ugm-3
24-01-1992,08:00,0,R,ugm-3
24-01-1992,09:00,0,R,ugm-3
24-01-1992,10:00,0,R,ugm-3
24-01-1992,11:00,0,R,ugm-3
24-01-1992,12:00,6,R,ugm-3
24-01-1992,13:00,0,R,ugm-3
24-01-1992,14:00,0,R,ugm-3
24-01-1992,15:00,0,R,ugm-3
24-01-1992,16:00,0,R,ugm-3
24-01-1992,17:00,0,R,ugm-3
24-01-1992,18:00,0,R,ugm-3
24-01-1992,19:00,0,R,ugm-3
24-01-1992,20:00,0,R,ugm-3
24-01-1992,21:00,0,R,ugm-3
24-01-1992,22:00,0,R,ugm-3
24-01-1992,23:00,0,R,ugm-3
24-01-1992,24:00,0,R,ugm-3
25-01-1992,01:00,0,R,ugm-3
25-01-1992,02:00,0,R,ugm-3
25-01-1992,03:00,0,R,ugm-3
25-01-1992,04:00,0,R,ugm-3
25-01-1992,05:00,0,R,ugm-3
25-01-1992,06:00,0,R,ugm-3
25-01-1992,07:00,0,R,ugm-3
25-01-1992,08:00,0,R,ugm-3
25-01-1992,09:00,0,R,ugm-3
25-01-1992,10:00,0,R,ugm-3
25-01-1992,11:00,0,R,ugm-3
25-01-1992,12:00,0,R,ugm-3
25-01-1992,13:00,0,R,ugm-3
25-01-1992,14:00,0,R,ugm-3
25-01-1992,15:00,0,R,ugm-3
25-01-1992,16:00,0,R,ugm-3
25-01-1992,17:00,0,R,ugm-3
25-01-1992,18:00,0,R,ugm-3
25-01-1992,19:00,0,R,ugm-3
25-01-1992,20:00,0,R,ugm-3
25-01-1992,21:00,0,R,ugm-3
25-01-1992,22:00,0,R,ugm-3
25-01-1992,23:00,0,R,ugm-3
25-01-1992,24:00,0,R,ugm-3
26-01-1992,01:00,0,R,ugm-3
26-01-1992,02:00,0,R,ugm-3
26-01-1992,03:00,0,R,ugm-3
26-01-1992,04:00,0,R,ugm-3
26-01-1992,05:00,0,R,ugm-3
26-01-1992,06:00,0,R,ugm-3
26-01-1992,07:00,0,R,ugm-3
26-01-1992,08:00,0,R,ugm-3
26-01-1992,09:00,0,R,ugm-3
26-01-1992,10:00,0,R,ugm-3
26-01-1992,11:00,4,R,ugm-3
26-01-1992,12:00,4,R,ugm-3
26-01-1992,13:00,10,R,ugm-3
26-01-1992,14:00,14,R,ugm-3
26-01-1992,15:00,10,R,ugm-3
26-01-1992,16:00,2,R,ugm-3
26-01-1992,17:00,0,R,ugm-3
26-01-1992,18:00,0,R,ugm-3
26-01-1992,19:00,0,R,ugm-3
26-01-1992,20:00,0,R,ugm-3
26-01-1992,21:00,0,R,ugm-3
26-01-1992,22:00,0,R,ugm-3
26-01-1992,23:00,0,R,ugm-3
26-01-1992,24:00,0,R,ugm-3
27-01-1992,01:00,0,R,ugm-3
27-01-1992,02:00,0,R,ugm-3
27-01-1992,03:00,0,R,ugm-3
27-01-1992,04:00,0,R,ugm-3
27-01-1992,05:00,0,R,ugm-3
27-01-1992,06:00,0,R,ugm-3
27-01-1992,07:00,0,R,ugm-3
27-01-1992,08:00,0,R,ugm-3
27-01-1992,09:00,0,R,ugm-3
27-01-1992,10:00,0,R,ugm-3
27-01-1992,11:00,2,R,ugm-3
27-01-1992,12:00,2,R,ugm-3
27-01-1992,13:00,2,R,ugm-3
27-01-1992,14:00,2,R,ugm-3
27-01-1992,15:00,0,R,ugm-3
27-01-1992,16:00,0,R,ugm-3
27-01-1992,17:00,0,R,ugm-3
27-01-1992,18:00,0,R,ugm-3
27-01-1992,19:00,0,R,ugm-3
27-01-1992,20:00,0,R,ugm-3
27-01-1992,21:00,0,R,ugm-3
27-01-1992,22:00,0,R,ugm-3
27-01-1992,23:00,0,R,ugm-3
27-01-1992,24:00,0,R,ugm-3
28-01-1992,01:00,0,R,ugm-3
28-01-1992,02:00,0,R,ugm-3
28-01-1992,03:00,0,R,ugm-3
28-01-1992,04:00,0,R,ugm-3
28-01-1992,05:00,0,R,ugm-3
28-01-1992,06:00,0,R,ugm-3
28-01-1992,07:00,0,R,ugm-3
28-01-1992,08:00,0,R,ugm-3
28-01-1992,09:00,0,R,ugm-3
28-01-1992,10:00,0,R,ugm-3
28-01-1992,11:00,0,R,ugm-3
28-01-1992,12:00,0,R,ugm-3
28-01-1992,13:00,0,R,ugm-3
28-01-1992,14:00,0,R,ugm-3
28-01-1992,15:00,0,R,ugm-3
28-01-1992,16:00,0,R,ugm-3
28-01-1992,17:00,0,R,ugm-3
28-01-1992,18:00,0,R,ugm-3
28-01-1992,19:00,0,R,ugm-3
28-01-1992,20:00,0,R,ugm-3
28-01-1992,21:00,0,R,ugm-3
28-01-1992,22:00,0,R,ugm-3
28-01-1992,23:00,0,R,ugm-3
28-01-1992,24:00,0,R,ugm-3
29-01-1992,01:00,0,R,ugm-3
29-01-1992,02:00,0,R,ugm-3
29-01-1992,03:00,0,R,ugm-3
29-01-1992,04:00,0,R,ugm-3
29-01-1992,05:00,0,R,ugm-3
29-01-1992,06:00,0,R,ugm-3
29-01-1992,07:00,0,R,ugm-3
29-01-1992,08:00,0,R,ugm-3
29-01-1992,09:00,0,R,ugm-3
29-01-1992,10:00,0,R,ugm-3
29-01-1992,11:00,0,R,ugm-3
29-01-1992,12:00,0,R,ugm-3
29-01-1992,13:00,0,R,ugm-3
29-01-1992,14:00,0,R,ugm-3
29-01-1992,15:00,0,R,ugm-3
29-01-1992,16:00,0,R,ugm-3
29-01-1992,17:00,0,R,ugm-3
29-01-1992,18:00,0,R,ugm-3
29-01-1992,19:00,18,R,ugm-3
29-01-1992,20:00,26,R,ugm-3
29-01-1992,21:00,30,R,ugm-3
29-01-1992,22:00,30,R,ugm-3
29-01-1992,23:00,34,R,ugm-3
29-01-1992,24:00,28,R,ugm-3
30-01-1992,01:00,30,R,ugm-3
30-01-1992,02:00,32,R,ugm-3
30-01-1992,03:00,28,R,ugm-3
30-01-1992,04:00,28,R,ugm-3
30-01-1992,05:00,26,R,ugm-3
30-01-1992,06:00,22,R,ugm-3
30-01-1992,07:00,20,R,ugm-3
30-01-1992,08:00,16,R,ugm-3
30-01-1992,09:00,12,R,ugm-3
30-01-1992,10:00,6,R,ugm-3
30-01-1992,11:00,2,R,ugm-3
30-01-1992,12:00,6,R,ugm-3
30-01-1992,13:00,2,R,ugm-3
30-01-1992,14:00,0,R,ugm-3
30-01-1992,15:00,0,R,ugm-3
30-01-1992,16:00,0,R,ugm-3
30-01-1992,17:00,0,R,ugm-3
30-01-1992,18:00,0,R,ugm-3
30-01-1992,19:00,0,R,ugm-3
30-01-1992,20:00,0,R,ugm-3
30-01-1992,21:00,0,R,ugm-3
30-01-1992,22:00,0,R,ugm-3
30-01-1992,23:00,0,R,ugm-3
30-01-1992,24:00,0,R,ugm-3
31-01-1992,01:00,18,R,ugm-3
31-01-1992,02:00,0,R,ugm-3
31-01-1992,03:00,0,R,ugm-3
31-01-1992,04:00,0,R,ugm-3
31-01-1992,05:00,0,R,ugm-3
31-01-1992,06:00,0,R,ugm-3
31-01-1992,07:00,0,R,ugm-3
31-01-1992,08:00,0,R,ugm-3
31-01-1992,09:00,0,R,ugm-3
31-01-1992,10:00,0,R,ugm-3
31-01-1992,11:00,2,R,ugm-3
31-01-1992,12:00,2,R,ugm-3
31-01-1992,13:00,2,R,ugm-3
31-01-1992,14:00,2,R,ugm-3
31-01-1992,15:00,2,R,ugm-3
31-01-1992,16:00,0,R,ugm-3
31-01-1992,17:00,0,R,ugm-3
31-01-1992,18:00,0,R,ugm-3
31-01-1992,19:00,0,R,ugm-3
31-01-1992,20:00,0,R,ugm-3
31-01-1992,21:00,0,R,ugm-3
31-01-1992,22:00,0,R,ugm-3
31-01-1992,23:00,0,R,ugm-3
31-01-1992,24:00,0,R,ugm-3
01-02-1992,01:00,0,R,ugm-3
01-02-1992,02:00,0,R,ugm-3
01-02-1992,03:00,0,R,ugm-3
01-02-1992,04:00,0,R,ugm-3
01-02-1992,05:00,0,R,ugm-3
01-02-1992,06:00,0,R,ugm-3
01-02-1992,07:00,0,R,ugm-3
01-02-1992,08:00,0,R,ugm-3
01-02-1992,09:00,0,R,ugm-3
01-02-1992,10:00,0,R,ugm-3
01-02-1992,11:00,0,R,ugm-3
01-02-1992,12:00,0,R,ugm-3
01-02-1992,13:00,0,R,ugm-3
01-02-1992,14:00,0,R,ugm-3
01-02-1992,15:00,2,R,ugm-3
01-02-1992,16:00,0,R,ugm-3
01-02-1992,17:00,0,R,ugm-3
01-02-1992,18:00,0,R,ugm-3
01-02-1992,19:00,0,R,ugm-3
01-02-1992,20:00,0,R,ugm-3
01-02-1992,21:00,0,R,ugm-3
01-02-1992,22:00,0,R,ugm-3
01-02-1992,23:00,0,R,ugm-3
01-02-1992,24:00,0,R,ugm-3
02-02-1992,01:00,0,R,ugm-3
02-02-1992,02:00,0,R,ugm-3
02-02-1992,03:00,0,R,ugm-3
02-02-1992,04:00,8,R,ugm-3
02-02-1992,05:00,14,R,ugm-3
02-02-1992,06:00,6,R,ugm-3
02-02-1992,07:00,2,R,ugm-3
02-02-1992,08:00,6,R,ugm-3
02-02-1992,09:00,2,R,ugm-3
02-02-1992,10:00,0,R,ugm-3
02-02-1992,11:00,6,R,ugm-3
02-02-1992,12:00,6,R,ugm-3
02-02-1992,13:00,8,R,ugm-3
02-02-1992,14:00,14,R,ugm-3
02-02-1992,15:00,12,R,ugm-3
02-02-1992,16:00,12,R,ugm-3
02-02-1992,17:00,6,R,ugm-3
02-02-1992,18:00,14,R,ugm-3
02-02-1992,19:00,22,R,ugm-3
02-02-1992,20:00,22,R,ugm-3
02-02-1992,21:00,20,R,ugm-3
02-02-1992,22:00,26,R,ugm-3
02-02-1992,23:00,32,R,ugm-3
02-02-1992,24:00,46,R,ugm-3
03-02-1992,01:00,46,R,ugm-3
03-02-1992,02:00,44,R,ugm-3
03-02-1992,03:00,48,R,ugm-3
03-02-1992,04:00,58,R,ugm-3
03-02-1992,05:00,54,R,ugm-3
03-02-1992,06:00,50,R,ugm-3
03-02-1992,07:00,44,R,ugm-3
03-02-1992,08:00,32,R,ugm-3
03-02-1992,09:00,20,R,ugm-3
03-02-1992,10:00,20,R,ugm-3
03-02-1992,11:00,26,R,ugm-3
03-02-1992,12:00,28,R,ugm-3
03-02-1992,13:00,26,R,ugm-3
03-02-1992,14:00,30,R,ugm-3
03-02-1992,15:00,36,R,ugm-3
03-02-1992,16:00,40,R,ugm-3
03-02-1992,17:00,34,R,ugm-3
03-02-1992,18:00,18,R,ugm-3
03-02-1992,19:00,14,R,ugm-3
03-02-1992,20:00,10,R,ugm-3
03-02-1992,21:00,14,R,ugm-3
03-02-1992,22:00,10,R,ugm-3
03-02-1992,23:00,8,R,ugm-3
03-02-1992,24:00,6,R,ugm-3
04-02-1992,01:00,16,R,ugm-3
04-02-1992,02:00,26,R,ugm-3
04-02-1992,03:00,20,R,ugm-3
04-02-1992,04:00,32,R,ugm-3
04-02-1992,05:00,44,R,ugm-3
04-02-1992,06:00,46,R,ugm-3
04-02-1992,07:00,42,R,ugm-3
04-02-1992,08:00,38,R,ugm-3
04-02-1992,09:00,34,R,ugm-3
04-02-1992,10:00,38,R,ugm-3
04-02-1992,11:00,40,R,ugm-3
04-02-1992,12:00,34,R,ugm-3
04-02-1992,13:00,36,R,ugm-3
04-02-1992,14:00,34,R,ugm-3
04-02-1992,15:00,32,R,ugm-3
04-02-1992,16:00,28,R,ugm-3
04-02-1992,17:00,24,R,ugm-3
04-02-1992,18:00,28,R,ugm-3
04-02-1992,19:00,34,R,ugm-3
04-02-1992,20:00,36,R,ugm-3
04-02-1992,21:00,40,R,ugm-3
04-02-1992,22:00,40,R,ugm-3
04-02-1992,23:00,42,R,ugm-3
04-02-1992,24:00,38,R,ugm-3
05-02-1992,01:00,46,R,ugm-3
05-02-1992,02:00,48,R,ugm-3
05-02-1992,03:00,52,R,ugm-3
05-02-1992,04:00,54,R,ugm-3
05-02-1992,05:00,54,R,ugm-3
05-02-1992,06:00,54,R,ugm-3
05-02-1992,07:00,50,R,ugm-3
05-02-1992,08:00,44,R,ugm-3
05-02-1992,09:00,42,R,ugm-3
05-02-1992,10:00,46,R,ugm-3
05-02-1992,11:00,46,R,ugm-3
05-02-1992,12:00,46,R,ugm-3
05-02-1992,13:00,46,R,ugm-3
05-02-1992,14:00,50,R,ugm-3
05-02-1992,15:00,44,R,ugm-3
05-02-1992,16:00,42,R,ugm-3
05-02-1992,17:00,30,R,ugm-3
05-02-1992,18:00,4,R,ugm-3
05-02-1992,19:00,0,R,ugm-3
05-02-1992,20:00,0,R,ugm-3
05-02-1992,21:00,0,R,ugm-3
05-02-1992,22:00,0,R,ugm-3
05-02-1992,23:00,2,R,ugm-3
05-02-1992,24:00,8,R,ugm-3
06-02-1992,01:00,14,R,ugm-3
06-02-1992,02:00,22,R,ugm-3
06-02-1992,03:00,26,R,ugm-3
06-02-1992,04:00,24,R,ugm-3